[[{"header":{"parameterUnit":"m.s-1","parameterCategory":1,"la1":30.2991,"la2":30.254,"lo1":-89.0895,"lo2":-89.0444,"dy":0.0017,"dx":0.0017,"nx":28,"ny":28,"refTime":"2025-04-27T21:00:00:Z","depth":0,"parameterNumber":2,"parameterNumberName":"U-component_of_WINDS"},"data":[0,0,0,0,0,0,0,0,0,0,0,0,0,0,0,0,0,0,0,0,0,0,0,0,0,0,0,0,0,0,0,0,0,0,0,0,0,0,0,0,0,0,0,0,0,0,0,0,0,0,0,0,0,0,0,0,0,0,-1.4966,-1.4968,0,-1.508,-1.5082,-1.5083,-1.513,-1.513,-1.513,-1.5129,-1.5249,-1.5252,-1.5256,0,0,0,0,0,0,0,0,0,0,0,0,0,-1.4793,-1.4796,-1.4966,-1.4968,-1.4969,-1.508,-1.5082,-1.5083,-1.513,-1.513,-1.513,-1.5129,-1.5248,-1.5252,-1.5256,0,0,0,0,0,0,0,0,0,0,0,0,0,-1.4884,-1.4797,-1.4966,-1.5006,-1.5011,-1.508,-1.5082,-1.5084,-1.513,-1.513,-1.513,-1.5129,-1.5247,-1.5252,-1.5257,-1.5296,0,0,-1.5272,-1.5275,0,0,0,0,0,0,0,0,-1.4878,-1.489,-1.4999,-1.5003,-1.5009,-1.5091,-1.5064,-1.5155,-1.513,-1.5085,-1.5129,-1.5129,-1.5197,-1.5206,-1.5228,-1.5301,-1.5306,-1.5273,-1.5276,-1.5278,-1.528,0,0,0,0,0,0,0,-1.4872,-1.4885,-1.5012,-1.5,-1.5006,-1.5019,-1.5032,-1.5082,-1.5142,-1.5089,-1.5093,-1.5105,-1.52,-1.5223,-1.5232,-1.5308,-1.5273,-1.5277,-1.528,-1.5282,-1.542,-1.542,0,0,0,0,0,0,-1.4859,-1.488,-1.5008,-1.5015,-1.4941,-1.5023,-1.5037,-1.5065,-1.5141,-1.5153,-1.5105,-1.5107,-1.5215,-1.5225,-1.5236,-1.5287,-1.5278,-1.5283,-1.5286,-1.5419,-1.542,-1.542,0,0,0,0,0,0,-1.4855,-1.487,-1.5003,-1.4948,-1.4966,-1.5026,-1.5057,-1.5067,-1.5091,-1.5154,-1.5165,-1.5118,-1.5215,-1.5229,-1.528,-1.5292,-1.5285,-1.529,-1.5418,-1.5419,-1.542,-1.5389,0,0,0,0,0,0,-1.485,-1.4868,-1.4883,-1.4948,-1.4969,-1.5045,-1.5058,-1.507,-1.5099,-1.5102,-1.5169,-1.518,-1.5216,-1.5273,-1.5285,-1.5299,-1.5294,-1.5418,-1.5419,-1.542,-1.5389,-1.5389,-1.5388,0,0,0,0,0,-1.4843,-1.487,-1.4883,-1.4898,-1.4988,-1.5045,-1.5057,-1.5097,-1.51,-1.5116,-1.5156,-1.5178,-1.5288,-1.5277,-1.5292,-1.5307,-1.5417,-1.5419,-1.542,-1.5389,-1.5389,-1.5388,0,0,0,0,0,0,-1.4805,-1.4879,-1.4895,-1.4943,-1.4987,-1.5053,-1.5074,-1.5095,-1.5141,-1.5142,-1.5191,-1.5205,-1.5253,-1.5286,-1.5272,-1.535,-1.5355,-1.5359,-1.5326,-1.5326,-1.5326,-1.5317,-1.5298,0,0,0,0,0,-1.4802,-1.4841,-1.4904,-1.4941,-1.4962,-1.5014,-1.504,-1.5067,-1.5116,-1.5135,-1.5179,-1.5226,-1.5272,-1.5301,-1.5346,-1.5394,-1.541,-1.5412,-1.5411,-1.5411,-1.5414,-1.5442,-1.5444,-1.5425,-1.5425,-1.5425,0,0,-1.4796,-1.4842,-1.4864,-1.4934,-1.4972,-1.5012,-1.503,-1.5071,-1.5102,-1.5142,-1.5193,-1.5227,-1.5283,-1.5333,-1.5357,-1.5362,-1.5423,-1.5412,-1.5411,-1.5415,-1.5444,-1.5445,-1.5447,-1.5426,-1.5425,-1.5425,0,0,-1.4807,-1.4845,-1.4879,-1.4917,-1.4973,-1.5007,-1.5016,-1.5079,-1.5102,-1.5154,-1.5185,-1.5223,-1.53,-1.5339,-1.5369,-1.5394,-1.5416,-1.5408,-1.5405,-1.5432,-1.5433,-1.5435,-1.5444,-1.5447,-1.5411,-1.541,-1.541,0,-1.4793,-1.4854,-1.4895,-1.4935,-1.4966,-1.5002,-1.5039,-1.5073,-1.5142,-1.5162,-1.5166,-1.5264,-1.5304,-1.5364,-1.537,-1.5393,-1.5405,-1.54,-1.5429,-1.5431,-1.5434,-1.5443,-1.5446,-1.5409,-1.5409,-1.5409,-1.541,0,-1.4835,-1.4876,-1.4898,-1.4962,-1.4995,-1.5033,-1.5081,-1.511,-1.5134,-1.5168,-1.5221,-1.5271,-1.5327,-1.5343,-1.5368,-1.5407,-1.5408,-1.542,-1.5426,-1.5433,-1.5443,-1.5447,-1.5407,-1.5408,-1.5408,-1.5408,0,0,-1.4824,-1.491,-1.4917,-1.4947,-1.5012,-1.5046,-1.5086,-1.514,-1.5164,-1.521,-1.5245,-1.531,-1.5321,-1.5355,-1.5385,-1.5408,-1.5426,-1.5418,-1.542,-1.5417,-1.5472,-1.5463,-1.5466,-1.544,-1.5441,-1.5442,-1.5468,0,-1.4843,-1.4915,-1.4953,-1.501,-1.5049,-1.5085,-1.512,-1.5164,-1.5198,-1.5237,-1.5275,-1.532,-1.5331,-1.5352,-1.5377,-1.5418,-1.5437,-1.5417,-1.5475,-1.5476,-1.5459,-1.5471,-1.5461,-1.5483,-1.5472,-1.5472,-1.5473,0,-1.4876,-1.492,-1.498,-1.504,-1.5058,-1.5089,-1.5142,-1.5178,-1.523,-1.5253,-1.529,-1.5319,-1.5364,-1.5366,-1.5429,-1.5414,-1.5441,-1.5464,-1.5466,-1.5473,-1.5475,-1.5479,-1.5491,-1.5494,-1.5479,-1.5479,-1.5478,0,-1.4862,-1.4937,-1.4982,-1.5007,-1.5078,-1.5099,-1.513,-1.5181,-1.5211,-1.5258,-1.5278,-1.5329,-1.5358,-1.5398,-1.544,-1.5438,-1.5499,-1.5505,-1.552,-1.5519,-1.5531,-1.553,-1.5548,-1.5548,-1.5548,-1.5547,-1.5547,0,-1.488,-1.4915,-1.4977,-1.5005,-1.5046,-1.509,-1.513,-1.5164,-1.5209,-1.5245,-1.528,-1.5313,-1.5367,-1.5408,-1.5441,-1.5489,-1.5501,-1.5522,-1.553,-1.5519,-1.5516,-1.5536,-1.5536,-1.5548,-1.5548,-1.5548,-1.5548,0,-1.4871,-1.4915,-1.4966,-1.503,-1.5047,-1.5074,-1.5129,-1.5158,-1.5193,-1.5238,-1.5252,-1.5307,-1.5357,-1.5403,-1.5469,-1.5492,-1.554,-1.5551,-1.5522,-1.5527,-1.5539,-1.5537,-1.5571,-1.5578,-1.5572,-1.5572,-1.5572,0,-1.488,-1.4908,-1.4973,-1.4999,-1.5029,-1.5071,-1.5102,-1.5147,-1.5178,-1.5238,-1.526,-1.5312,-1.5356,-1.5433,-1.548,-1.5532,-1.5544,-1.5553,-1.5552,-1.554,-1.5545,-1.5542,-1.5546,-1.5552,-1.5552,-1.5551,-1.5551,0,-1.489,-1.491,-1.4952,-1.5002,-1.5037,-1.5079,-1.5122,-1.5141,-1.5195,-1.5228,-1.5278,-1.5312,-1.5379,-1.5431,-1.5487,-1.5521,-1.5545,-1.5551,-1.5557,-1.5546,-1.5528,-1.5538,-1.552,-1.555,-1.555,-1.555,-1.555,-1.555,-1.4891,-1.4918,-1.4968,-1.5014,-1.505,-1.509,-1.512,-1.5159,-1.5201,-1.5258,-1.5283,-1.5334,-1.5386,-1.5464,-1.5497,-1.5538,-1.5544,-1.5553,-1.5555,-1.5557,-1.5554,-1.5521,-1.5549,-1.5549,-1.5549,-1.5549,-1.5549,0,-1.4904,-1.4938,-1.4979,-1.5038,-1.5074,-1.5092,-1.5141,-1.5171,-1.5215,-1.526,-1.5302,-1.536,-1.541,-1.5461,-1.5514,-1.5538,-1.555,-1.555,-1.5549,-1.5556,-1.5546,-1.5536,-1.5539,-1.5539,-1.5539,-1.5539,-1.5539,-1.5539,-1.4915,-1.496,-1.4986,-1.505,-1.5085,-1.5134,-1.516,-1.5197,-1.5233,-1.5296,-1.5337,-1.537,-1.5418,-1.5475,-1.5522,-1.5536,-1.5554,-1.555,-1.5567,-1.5557,-1.5557,-1.5558,-1.5548,-1.5554,-1.5554,-1.5574,-1.5574,-1.5574]},{"header":{"parameterUnit":"m.s-1","parameterCategory":1,"la1":30.2991,"la2":30.254,"lo1":-89.0895,"lo2":-89.0444,"dy":0.0017,"dx":0.0017,"nx":28,"ny":28,"refTime":"2025-04-27T21:00:00:Z","depth":0,"parameterNumber":3,"parameterNumberName":"V-component_of_WINDS"},"data":[0,0,0,0,0,0,0,0,0,0,0,0,0,0,0,0,0,0,0,0,0,0,0,0,0,0,0,0,0,0,0,0,0,0,0,0,0,0,0,0,0,0,0,0,0,0,0,0,0,0,0,0,0,0,0,0,0,0,2.1772,2.1772,0,2.1751,2.175,2.175,2.1713,2.1712,2.1711,2.1711,2.1689,2.1689,2.1689,0,0,0,0,0,0,0,0,0,0,0,0,0,2.1781,2.1781,2.1772,2.1772,2.1772,2.1751,2.175,2.175,2.1713,2.1712,2.1711,2.171,2.1689,2.1689,2.1689,0,0,0,0,0,0,0,0,0,0,0,0,0,2.177,2.1781,2.1772,2.175,2.1748,2.1751,2.175,2.175,2.1713,2.1712,2.1711,2.171,2.1689,2.1689,2.1689,2.1711,0,0,2.1689,2.1689,0,0,0,0,0,0,0,0,2.1771,2.177,2.1754,2.1752,2.175,2.1733,2.1745,2.1737,2.1713,2.1726,2.1711,2.1709,2.1704,2.1703,2.1702,2.171,2.1709,2.1689,2.1689,2.1689,2.169,0,0,0,0,0,0,0,2.1772,2.1771,2.1763,2.1754,2.1751,2.1742,2.1739,2.1744,2.1722,2.1725,2.1722,2.172,2.1703,2.1702,2.1701,2.1709,2.1689,2.1689,2.169,2.169,2.1733,2.1734,0,0,0,0,0,0,2.1775,2.1771,2.1764,2.1763,2.1758,2.1743,2.1739,2.174,2.1721,2.1718,2.1721,2.1719,2.1702,2.1701,2.17,2.1723,2.1689,2.169,2.169,2.1732,2.1733,2.1734,0,0,0,0,0,0,2.1776,2.1775,2.1765,2.1766,2.1764,2.1743,2.1744,2.174,2.1738,2.1719,2.1714,2.1724,2.1701,2.17,2.1708,2.1722,2.169,2.169,2.173,2.1732,2.1734,2.1771,0,0,0,0,0,0,2.1776,2.1776,2.1784,2.1767,2.1764,2.1774,2.1745,2.174,2.1738,2.1735,2.172,2.1716,2.17,2.1708,2.1708,2.1722,2.169,2.1729,2.1731,2.1733,2.1769,2.1774,2.1779,0,0,0,0,0,2.1777,2.1795,2.1784,2.1784,2.1774,2.1775,2.1773,2.1754,2.174,2.1747,2.1735,2.1717,2.1721,2.1709,2.1709,2.1723,2.1728,2.173,2.1733,2.1767,2.1773,2.1779,0,0,0,0,0,0,2.1815,2.1793,2.178,2.1794,2.1787,2.1769,2.1778,2.1762,2.1759,2.1755,2.1732,2.1729,2.174,2.1732,2.172,2.1743,2.1721,2.1724,2.1747,2.1753,2.1758,2.1759,2.169,0,0,0,0,0,2.1825,2.1827,2.1808,2.1822,2.1819,2.1799,2.1799,2.1785,2.1776,2.1773,2.1761,2.1753,2.1752,2.1752,2.1751,2.1768,2.1763,2.1777,2.1782,2.1786,2.1788,2.1796,2.1801,2.1742,2.1742,2.1742,0,0,2.1845,2.1833,2.1836,2.1829,2.1822,2.1824,2.1797,2.1801,2.1803,2.1773,2.178,2.1771,2.1761,2.1774,2.1778,2.1767,2.1804,2.1789,2.1793,2.1792,2.1799,2.1804,2.1809,2.1744,2.1743,2.1743,0,0,2.1884,2.1876,2.1886,2.1879,2.1868,2.1855,2.1857,2.1842,2.1834,2.1841,2.1819,2.1821,2.182,2.1814,2.181,2.1846,2.1829,2.1847,2.1872,2.188,2.1884,2.1888,2.1901,2.1905,2.1849,2.1849,2.1849,0,2.1911,2.1914,2.1894,2.1899,2.1896,2.187,2.188,2.1874,2.1863,2.1862,2.185,2.1848,2.1839,2.185,2.1858,2.1857,2.1859,2.1848,2.1886,2.1889,2.1893,2.1904,2.1909,2.1851,2.1851,2.1851,2.1851,0,2.1948,2.195,2.196,2.195,2.1948,2.1956,2.1937,2.1937,2.1924,2.1912,2.1918,2.1907,2.1902,2.1904,2.189,2.1912,2.1905,2.189,2.1868,2.1901,2.1911,2.1915,2.1854,2.1854,2.1853,2.1852,0,0,2.201,2.1988,2.1992,2.1986,2.1972,2.1974,2.198,2.1976,2.1976,2.197,2.1974,2.1975,2.196,2.1956,2.1942,2.1948,2.1977,2.1932,2.1931,2.194,2.1999,2.201,2.2016,2.1965,2.1966,2.1967,2.2,0,2.2045,2.2055,2.2036,2.205,2.2052,2.2027,2.2033,2.2024,2.2013,2.2013,2.2001,2.2001,2.1982,2.1979,2.1985,2.1972,2.1988,2.197,2.1969,2.1969,2.1972,2.2021,2.2033,2.2065,2.2003,2.2004,2.2005,0,2.2088,2.2083,2.2097,2.2081,2.2082,2.2087,2.2081,2.2081,2.2071,2.2063,2.2058,2.2041,2.2046,2.2025,2.2032,2.2019,2.2018,2.2012,2.2012,2.2011,2.1989,2.2021,2.2075,2.2079,2.2011,2.201,2.201,0,2.2131,2.2128,2.2136,2.2132,2.2114,2.2119,2.2111,2.21,2.2098,2.2093,2.2092,2.2087,2.2085,2.2081,2.2063,2.205,2.2071,2.2049,2.2064,2.2064,2.2069,2.2069,2.2123,2.2069,2.2069,2.2069,2.2069,0,2.2172,2.2181,2.2155,2.216,2.217,2.2148,2.2159,2.2149,2.2139,2.2141,2.2119,2.2122,2.2098,2.2098,2.2084,2.2091,2.209,2.2083,2.2079,2.2085,2.2085,2.2083,2.208,2.207,2.207,2.207,2.207,0,2.2221,2.2204,2.2211,2.2193,2.2189,2.2197,2.2182,2.2186,2.2173,2.2176,2.2176,2.2156,2.2155,2.2136,2.2131,2.2122,2.2134,2.2126,2.2137,2.2135,2.215,2.2149,2.2204,2.221,2.2153,2.2154,2.2154,0,2.2249,2.2255,2.2238,2.2238,2.2232,2.2232,2.223,2.2209,2.2208,2.2197,2.2202,2.2198,2.2195,2.2194,2.2179,2.2175,2.2166,2.2186,2.2165,2.2171,2.2166,2.2165,2.2165,2.219,2.2191,2.2191,2.2192,0,2.2298,2.2289,2.2287,2.2282,2.228,2.2275,2.2269,2.227,2.2247,2.2246,2.2244,2.2242,2.2236,2.2233,2.2226,2.2218,2.2201,2.2198,2.2201,2.2207,2.2213,2.2209,2.2149,2.2197,2.2197,2.2196,2.2196,2.2196,2.2337,2.2342,2.233,2.2329,2.2321,2.2316,2.2318,2.2306,2.2304,2.2298,2.2286,2.2286,2.2275,2.2263,2.2257,2.2256,2.2246,2.2251,2.2252,2.2253,2.2256,2.2213,2.2255,2.2255,2.2255,2.2255,2.2254,0,2.2386,2.2377,2.2375,2.2367,2.2365,2.2349,2.2341,2.2341,2.2341,2.2333,2.2329,2.2327,2.2324,2.2308,2.2303,2.2306,2.2298,2.2305,2.2305,2.2303,2.2266,2.2263,2.2312,2.2312,2.2312,2.2312,2.2312,2.2312,2.241,2.2417,2.2407,2.241,2.2401,2.2401,2.2397,2.2392,2.2384,2.2383,2.238,2.237,2.2358,2.2352,2.2348,2.2344,2.2343,2.2353,2.2346,2.2311,2.2306,2.23,2.2298,2.2353,2.2353,2.2383,2.2383,2.2383]}]]